Regional Weather Roundup
Issued by NWS Wakefield, VA

Home | Current Version | Previous Version | Graphics & Text | Print | Product List | Glossary On
Versions: 1 2 3 4 5 6 7 8 9 10 11 12 13 14 15 16 17 18 19 20 21 22 23 24 25 26 27 28 29 30 31 32 33 34 35 36 37 38 39 40 41 42 43 44 45 46 47 48 49 50
000
ASUS41 KAKQ 261110
RWRAKQ

REGIONAL WEATHER ROUNDUP
NATIONAL WEATHER SERVICE WAKEFIELD VA
700 AM EDT SAT JUL 26 2014

Note: "fair" indicates few or no clouds below 12,000 feet with no
significant weather and/or obstructions to visibility. * = Denotes
station may not report precipitation (e.g., rain,snow,etc.),
thunder or fog.

VAZ042-051-052>054-056-261200-
NORTHERN VIRGINIA

CITY           SKY/WX    TMP DP  RH WIND       PRES   REMARKS
WASH NATIONAL  CLOUDY    73  65  75 S7        30.00S
DULLES         CLOUDY    67  63  87 S6        30.00S
FORT BELVOIR   CLOUDY    70  66  88 VRB3      30.00S
QUANTICO       MOCLDY    71  65  81 SW8       30.01S
FREDERICKSBRG* MOCLDY    69  67  94 CALM      30.00F
STAFFORD*      MOCLDY    67  67 100 CALM      30.05S
WARRENTON      MOCLDY    68  68 100 CALM      30.00S
CULPEPER*      MOCLDY   N/A N/A N/A CALM      30.01R
MANASSAS*      CLOUDY    70  66  88 CALM      30.00S
LEESBURG*      CLOUDY    68  66  94 SW3       30.01S
WINCHESTER     CLOUDY    68  63  83 CALM      30.01S
$$

VAZ048-049-060>072-079>083-261200-
CENTRAL AND SOUTH CENTRAL VIRGINIA...AND NORTH CENTRAL NORTH CAROLINA

CITY           SKY/WX    TMP DP  RH WIND       PRES   REMARKS
RICHMOND       MOCLDY    70  64  81 CALM      30.02S
CHESTERFIELD*  MOSUNNY  N/A N/A N/A S5        30.03F
HANOVER        PTCLDY    69  65  86 S3        30.03S
TAPPAHANNOCK*  PTCLDY    66  60  81 CALM      30.02F
CHARLOTTSVILLE PTCLDY    66  65  96 SW7       30.01S
ORANGE*        PTCLDY    64  63  94 CALM      30.03S
LOUISA*        PTCLDY    66  64  94 CALM      30.01S
FARMVILLE*     MOCLDY    66  64  94 CALM      30.01R
SOUTH HILL*    FOG       72  72 100 CALM      30.08S VSB 1/2
ROANOKE RAPIDS MOSUNNY   63  63 100 CALM      30.03S FOG
RALEIGH        FOG       72  70  93 CALM      30.03R VSB 1/4
$$

VAZ088>098-261200-
SOUTHEAST VIRGINIA

CITY           SKY/WX    TMP DP  RH WIND       PRES   REMARKS
NORFOLK        CLOUDY    71  62  73 S3        30.03S
VIRGINIA BEACH CLOUDY    68  64  87 CALM      30.03R
NORFOLK NAVAL  CLOUDY    72  63  73 S3        30.04S
WEST POINT*    CLOUDY    69  64  81 CALM      30.04S
NEWPORT NEWS   CLOUDY    71  64  78 CALM      30.03R
LANGLEY AFB    CLOUDY    71  65  81 SW5       30.02S
FORT EUSTIS    CLOUDY    72  63  72 S6        30.01S
WILLIAMSBURG*  CLOUDY    72  66  83 S3        30.04S
FRANKLIN*      CLOUDY    64 N/A N/A CALM      30.03S
WAKEFIELD      CLOUDY    66  63  90 CALM      30.03S
$$

VAZ020-022-025-037-045-261200-
WESTERN AND SOUTHWEST VIRGINIA

CITY           SKY/WX    TMP DP  RH WIND       PRES   REMARKS
STAUNTON*      PTCLDY    66  63  90 CALM      30.05S
HOT SPRINGS VA CLEAR     60  58  93 W12       30.15S
LYNCHBURG      PTCLDY    68  66  93 CALM      30.04S
DANVILLE       MOCLDY    69  66  90 CALM      30.03R
MARTINSVILLE   MOCLDY    69  69  98 CALM      30.06S FOG
ROANOKE        PTCLDY    69  66  90 CALM      30.05R
BLACKSBURG     MOCLDY    64  64 100 CALM        N/A  FOG
DUBLIN*        CLEAR     63  63 100 W6        30.10S FOG
MARION*        MOCLDY   N/A N/A N/A CALM      30.14S
HILLSVILLE*    FOG       63  63  99 NW5       30.11S VSB 1/4
RICHLANDS*     CLOUDY    64  61  90 S5        30.12R
WISE*          CLEAR     63  59  88 CALM      30.13R
ABINGDON*      MOCLDY    63  62  97 CALM      30.10S
$$

MDZ021>025-VAZ099-100-261200-
SOUTHERN MARYLAND AND THE DELMARVA PENINSULA

CITY           SKY/WX    TMP DP  RH WIND       PRES   REMARKS
PATUXENT RIVER MOCLDY    70  62  76 SW6       30.01F
BAY BRIDGE APT   N/A     72  63  73 S6        30.00S
LEONARDTOWN    CLOUDY    68  61  77 S5        30.03S
DOVER          PTSUNNY   69  64  84 SW6       30.00S
GEORGETOWN     CLOUDY    65  61  87 SE3       30.03S
EASTON         CLOUDY    72  66  83 S5        30.04F
CAMBRIDGE      MOCLDY    70  64  83 CALM      30.00F
SALISBURY      NOT AVBL
OCEAN CITY     CLOUDY    65  62  90 CALM      30.03S
WALLOPS ISLAND CLOUDY    70  63  78 SW5       30.03F
ACCOMACK*        N/A     64  61  88 S3        30.03S
$$

NCZ012>017-030>032-261200-
EASTERN NORTH CAROLINA

CITY           SKY/WX    TMP DP  RH WIND       PRES   REMARKS
ELIZABETH CITY CLOUDY    73  66  78 CALM      30.03S
AHOSKIE*       PTCLDY    68  65  90 CALM      30.04R
EDENTON*       CLOUDY    68  67  94 CALM      30.03S
CURRITUCK*     MOCLDY    70  65  84 CALM      30.04S
KILL DEVIL HLS MOCLDY    73  66  79 E3        30.02S
MANTEO         NOT AVBL
CAPE HATTERAS  MOCLDY    77  73  87 NE5       30.01S
GOLDSBORO      CLOUDY    73  73 100 N1        30.00S
WASHINGTON     CLOUDY    68  66  94 CALM      30.03S
GREENVILLE     CLOUDY    70  70 100 CALM      30.04F
NEW BERN       MOCLDY    76  72  87 CALM      30.03S
WILMINGTON     MOCLDY    75  73  93 CALM      30.00R
$$

VAZ048-261200-
ELSEWHERE

CITY           SKY/WX    TMP DP  RH WIND       PRES   REMARKS
HARRISBURG PA  CLOUDY    66  57  72 E5        29.99F
BALTIMORE      LGT RAIN  68  63  84 CALM      29.99S
ANNAPOLIS      MOCLDY    71  64  78 S6        30.00S
ANDREWS AFB    CLOUDY    69  65  87 S8        30.00S
WILMINGTON DE  CLOUDY    68  59  73 S3        30.02R
PHILADELPHIA   CLOUDY    69  60  73 S3        30.01S
WILDWOOD NJ*   MOSUNNY   64  61  88 CALM      30.03S
ATLANTIC CITY  CLOUDY    65  61  87 CALM      30.02S
HENDERSON NC   FOG       69  68  94 CALM      30.03S VSB<1/4
GREENSBORO     CLOUDY    72  70  94 W3        30.04R FOG
ROCKY MOUNT    CLOUDY    71  70  96 CALM      30.02S FOG
FAYETTEVILLE   FOG       73  72  96 CALM      30.00F VSB<1/4
CHARLOTTE      MOCLDY    68  67  96 CALM      30.03R FOG
$$

VAZ100-261200-
MARINE

STATION/POSITION TIME  TEMP    WIND        PRES    WAVE   SWELL
                       AIR SEA DIR/SP/G            HT/PER HT/PER
                 (UTC) (F)     (DEG/KT/KT) (MB)    (FT/S) (FT/S)
44066 TX TWR #4  1100   72 74  260/ 10/ 12 1016.8R   2/ 8   2/ 8
CAPE MAY NJ      1100   70 76  170/  3/  4 1016.2S
LEWES DE         1100   68 70  210/  4/  6 1016.3S
15NM E FENWICK I 1100   73 76              1017.0R   2/ 8
OCEAN-CITY-INLET 1100   69 72  200/  2/  3 1016.5F
WACHAPREAGUE VA  1100   69 79  250/  2/  2 1016.7S
THOMAS POINT MD  1100   73 78  210/ 11/ 13 1016.4R
GOOSES REEF MD   1100   73     220/ 12/ 14 1016.4S
COVE POINT MD    1100   71     200/  6/  7 1016.0S
SOLOMONS ISLAND  1100      81                N/A
BISHOPS HEAD MD  1100   75 77  210/  7/ 10 1016.1S
PINEY POINT MD   1100          230/ 10/ 11   N/A
POTOMAC MD       1100   73     220/ 10/ 14 1015.7S
CAMBRIDGE MD     1100   70 80  200/  2/  4 1016.0S
LEWISETTA VA     1100   70 79  220/  9/ 10 1016.0F
RAPPAHANNOCK LGT 1100          170/  9/ 10 1017.0F
STINGRAY PT      1100   75     210/  8/ 10 1017.3S
YORK RVR RNG VA  1100   74     210/  8/  9 1016.2S
YORKTOWN VA      1100   71 80  180/  2/  3 1016.5R
JAMESTOWN VA     1100   71     160/  4/  6   N/A
DOMINION TERM VA 1100   73     180/  6/  7 1016.8S
KIPTOPEKE VA     1100      80  150/  6/  8   N/A
CHES BAY BRIDGE  1100   74 78  170/  7/ 10 1016.2S
CAPE HENRY VA    1100   72     190/  7/  7 1015.7S
WILLOUBY STN VA  1100          180/  7/  8 1016.0S
S CRANEY ISL VA  1100          170/  5/  6 1016.8S
CAPE HENRY BUOY  1100      77                N/A     2/ 7
1ST LANDING BUOY 1100   74     190/  6/  8 1016.5S
CAPE CHARLES BUO 1100      76                N/A     2/ 7
OFFSHORE WE BUOY 1100      78                N/A     2/ 7
64NM E OF VA BCH 1100   77 78   70/  4/  4 1016.7F   2/ 7   2/ 7
DUCK PIER NC     1100   76 76  100/  6/  6 1016.2R
44056 DUCK FRF   1100                        N/A     2/ 6
OREGON INLET NC  1100   76 78   70/  4/  5 1016.7F
HATTERAS NC      1100   77 80   70/  3/  5 1016.7S
DIAMOND SHLS NC  1100           CALM  /  2 1016.0R   2/ 6   2/ 6
CAPE LOOKOUT NC  1000   79     120/  6/  6 1015.7R
$$


USA.gov is the U.S. government's official web portal to all federal, state and local government web resources and services.